Miscellaneous Local Product
Issued by NWS Hastings, NE

Home | Current Version | Previous Version | Graphics & Text | Print | Product List | Glossary On
Versions: 1 2 3 4 5 6 7 8 9 10 11 12 13 14 15 16 17 18 19 20 21 22 23 24 25 26 27 28 29 30 31 32 33 34 35 36 37 38 39 40 41 42 43 44 45 46 47 48 49 50
666
AXUS43 KGID 111202
MISGRI

GID CWA HOURLY WEATHER ROUNDUP
NATIONAL WEATHER SERVICE HASTINGS NE
600 AM CST THU FEB 11 2016

NOTE: "FAIR" INDICATES FEW OR NO CLOUDS BELOW 12,000 FEET WITH NO
SIGNIFICANT WEATHER AND/OR OBSTRUCTIONS TO VISIBILITY.

...SOUTH CENTRAL NEBRASKA...

CITY           SKY/WX    TMP DP  RH WIND       PRES   REMARKS
GRAND ISLAND   CLOUDY    26  22  84 NE10      30.20F WCI  16
HASTINGS       CLOUDY    27  22  81 NE13      30.20S WCI  16
KEARNEY        CLOUDY    28  25  86 NE6       30.18S WCI  22
ORD            CLOUDY    27  24  89 E7        30.15F WCI  19
YORK           CLOUDY    23  19  86 N8        30.23S WCI  14
AURORA         CLOUDY    25  23  93 NE7       30.21S FOG     WCI  17
LEXINGTON      CLOUDY    30  27  88 NW3       30.17F
HOLDREGE       CLOUDY    29  26  90 N9        30.18R WCI  20
HEBRON         CLOUDY    22  20  90 NE6       30.25R WCI  15

...NEBRASKA PANHANDLE...

CITY           SKY/WX    TMP DP  RH WIND       PRES   REMARKS
CHADRON        CLOUDY    27  24  89 W3        30.04F
ALLIANCE       CLOUDY    25  21  85 SW7       30.05F WCI  17
SCOTTSBLUFF    CLOUDY    33  24  69 N5        30.09S WCI  29
SIDNEY         CLOUDY    36  23  59 W13       30.10R WCI  27

...WESTERN AND NORTH CENTRAL NEBRASKA...

CITY           SKY/WX    TMP DP  RH WIND       PRES   REMARKS
VALENTINE      CLOUDY    28  26  92 SE3       30.12R
AINSWORTH      CLOUDY    28  25  86 CALM      30.15R
ONEILL         CLOUDY    25  24  96 E6        30.18R FOG     WCI  18
BROKEN BOW     CLOUDY    30  27  88 CALM      30.14S
IMPERIAL       CLOUDY    24  21  88 SW3       30.13S
NORTH PLATTE   CLOUDY    27  25  92 E6        30.14S FOG     WCI  20
MCCOOK         CLOUDY    26  23  88 CALM      30.17R

...EASTERN NEBRASKA...

CITY           SKY/WX    TMP DP  RH WIND       PRES   REMARKS
NORFOLK        CLOUDY    19  15  84 E6        30.23S WCI  11
SO SIOUX CITY  CLOUDY    17   9  70 E3        30.30R
TEKAMAH        CLOUDY    15   4  61 E7        30.30S WCI   5
COLUMBUS       CLOUDY    19   9  63 NE3       30.25S
ALBION         CLOUDY    22  19  88 E5        30.20F WCI  16
OMAHA EPPLEY   CLOUDY    15   3  59 NE5       30.30R WCI   8
OFFUTT AFB     CLOUDY    14   7  73 NE8       30.29R WCI   3
MILLARD        CLOUDY    17  10  71 CALM      30.30R
LINCOLN        CLOUDY    18  14  84 NE8       30.28R WCI   8
NEBRASKA CITY  CLOUDY    20  17  87 NE10      30.27R WCI   9
BEATRICE       CLOUDY    21  19  93 NE9       30.25R WCI  11
FALLS CITY     CLOUDY    20  17  88 N6        30.26R WCI  12

...NORTHERN KANSAS...

CITY           SKY/WX    TMP DP  RH WIND       PRES   REMARKS
GOODLAND       CLOUDY    28  22  78 SW7       30.14F WCI  21
HILL CITY      CLOUDY    24  21  88 NW7       30.21R WCI  16
NORTON         CLOUDY    28  25  86 NE8       30.18S WCI  20
PHILLIPSBURG   CLOUDY    30  27  86 CALM      30.22R
SMITH CENTER   CLOUDY    27  25  93 N10G17    30.21R WCI  17
BELOIT         CLEAR     25  21  86 NE7       30.22R WCI  17
HAYS           CLEAR     27  18  69 NE7       30.21R WCI  19
RUSSELL        CLEAR     27  24  89 N7        30.20R WCI  19
CONCORDIA      CLOUDY    24  21  88 N10       30.23R FOG     WCI  14
SALINA         CLOUDY    28  23  81 NE10      30.23R WCI  19
TOPEKA         CLEAR     23  18  81 NE5       30.23R WCI  17



USA.gov is the U.S. government's official web portal to all federal, state and local government web resources and services.